User: anonymous   Login
Location: Brede
(50.9167°N, 0.6000°E)
Time: 11:34:51
(UTC+00:00)
Language:

Cosmos 2098 Rocket - Orbit

View from above orbital plane
View from above orbital plane
View from above satellite
View from above satellite

Ground track
Ground track

The orbit data is extracted from the following two-line orbital elements,

1 20775U 90078B   20305.18494125  .00003338  00000-0  15927-3 0  9993
2 20775  82.9226 114.6743 0572536 133.9705 231.0212 14.34874106525195
Epoch (UTC): 31 October 2020 04:26:18
Eccentricity: 0.0572536
inclination: 82.9226°
perigee height: 366 km
apogee height: 1185 km
right ascension of ascending node: 114.6743°
argument of perigee: 133.9705°
revolutions per day: 14.34874106
mean anomaly at epoch: 231.0212°
orbit number at epoch: 52519

The dashed part of the orbit path shows where the satellite is in the earth's shadow,  

DLR